Regional Weather Roundup
Issued by NWS

Home | Current Version | Previous Version | Graphics & Text | Print | Product List | Glossary On
Versions: 1 2 3 4 5 6 7 8 9 10 11 12 13 14 15 16 17 18 19 20 21 22 23 24 25 26 27 28 29 30 31 32 33 34 35 36 37 38 39 40 41 42 43 44 45 46 47 48 49 50
000
ASUS43 KBIS 172010
RWRND

NORTH DAKOTA REGIONAL WEATHER ROUNDUP
NATIONAL WEATHER SERVICE BISMARCK ND
300 PM CDT THU AUG 17 2017

NOTE: "FAIR" INDICATES FEW OR NO CLOUDS BELOW 12,000 FEET WITH NO
SIGNIFICANT WEATHER AND/OR OBSTRUCTIONS TO VISIBILITY.


NDZ001>003-009>011-017-172100-
NORTHWEST NORTH DAKOTA

CITY           SKY/WX    TMP DP  RH WIND       PRES   REMARKS
WILLISTON      SUNNY     85  52  32 VRB3      29.83S
MINOT          SUNNY     84  48  28 SE14G21   29.83F
MINOT AFB      MOSUNNY   83  48  28 S13G18    29.82S
$$

NDZ018>021-031>035-040>046-172100-
SOUTHWEST NORTH DAKOTA

CITY           SKY/WX    TMP DP  RH WIND       PRES   REMARKS
BISMARCK       SUNNY     82  53  36 SE13      29.86S
DICKINSON      SUNNY     85  45  24 NW14      29.86S
GARRISON         N/A     79  57  46 S14       29.83F
HETTINGER ARPT CLOUDY    84  48  28 NW8       29.90S
$$

NDZ004>008-012>016-024-026-027-054-172100-
NORTHEAST NORTH DAKOTA

CITY           SKY/WX    TMP DP  RH WIND       PRES   REMARKS
GRAND FORKS    MOSUNNY   79  62  56 NW9       29.84S
GRND FRKS AFB  SUNNY     76  60  56 NW3       29.85F
DEVILS LAKE    MOSUNNY   77  55  46 NW6       29.88S
$$

NDZ022-023-025-028>030-036>039-047>053-172100-
SOUTHEAST NORTH DAKOTA

CITY           SKY/WX    TMP DP  RH WIND       PRES   REMARKS
FARGO          MOSUNNY   78  60  53 NW10      29.84R
JAMESTOWN      SUNNY     78  56  46 N6        29.87F
$$





USA.gov is the U.S. government's official web portal to all federal, state and local government web resources and services.